Tracking 27401 objects as of 3-Jun-2023
HD Live streaming from Space Station
objects crossing your sky now

ATLAS 5 CENTAUR DEB

Track ATLAS 5 CENTAUR DEB now!


NORAD ID: 43971
Int'l Code: 2014-055AA
Perigee: 8,732.2 km
Apogee: 34,467.9 km
Inclination: 20.9 °
Period: 775.9 minutes
Semi major axis: 27971 km
RCS: Unknown
Launch date: September 17, 2014
Source: United States (US)
Launch site: AIR FORCE EASTERN TEST RANGE (AFETR)

Note: This is SATELLITE DEBRIS
Your satellite tracking list
Your tracking list is empty




NASA's NSSDC Master Catalog

Two Line Element Set (TLE):
1 43971U 14055AA  23146.24668827 -.00000163  00000-0  00000-0 0  9999
2 43971  20.9114 261.3372 4600433 321.9861  13.1242  1.85583686 32027
Source of the keplerian elements: AFSPC